Main page
METAR-TAF:

METAR-TAF

Airports :

Neil Armstrong Airport

Wapakoneta, Ohio, United States

latitude: 40-29-37N, longitude: 084-17-53W, elevation: 912 ft

Current weather observation

The report was made 8 minutes ago, at 21:35 UTC
Calm wind
Temperature 79°F
Humidity 42%
Pressure 30.21 in. Hg
Visibility: 10 miles
Clear sky

METAR: KAXV 212135Z AUTO 00000KT 10SM CLR 26/12 A3021 RMK AO2

Time: 17:43 (21:43 UTC)


TAF: missing

Weather observations and forecasts of more than 4000 airports (METAR and TAF reports).

The available stations are represented by yellow and red dots on the map.

Hover mouse over dot to see the name of the station.

Then click to see weather observations and forecasts.

To change the map : click on the green buttons with a black cross to zoom in, on the green button with a dash to zoom out, or on the green arrows for adjacent maps.


METAR-TAF: